DW2891 Weather Reports


Display with metric or nautical units.
time (UTC)temp
F
wind
direction
speed
MPH
gust
MPH
rain 1hr
in
rain 24hr
in
rain mn
in
humidity
%
barometer
mb
20260506022605 65 67 0.0 0.0 0.00 0.00 0.00 73 1011.9
20260506022105 65 67 0.0 0.0 0.00 0.00 0.00 72 1012.0
20260506021105 66 67 0.0 0.0 0.00 0.00 0.00 71 1012.0
20260506020105 66 67 0.0 0.0 0.00 0.00 0.00 69 1011.9
20260506015605 67 67 0.0 0.0 0.00 0.00 0.00 70 1012.0
20260506015105 67 67 0.0 0.0 0.00 0.00 0.00 69 1012.0
20260506014604 67 67 0.0 0.0 0.00 0.00 0.00 69 1012.0
20260506014105 67 67 0.0 0.0 0.00 0.00 0.00 69 1011.9
20260506013105 67 67 0.0 0.0 0.00 0.00 0.00 69 1012.0
20260506012605 67 67 0.0 0.0 0.00 0.00 0.00 68 1012.1
20260506012105 67 67 0.0 0.0 0.00 0.00 0.00 69 1012.0
20260506011605 68 67 0.0 0.0 0.00 0.00 0.00 70 1012.1
20260506010605 68 67 0.0 0.0 0.00 0.00 0.00 68 1012.1
20260506005605 69 67 0.0 0.0 0.00 0.00 0.00 66 1012.2
20260506005105 69 67 0.0 0.0 0.00 0.00 0.00 67 1012.2
20260506004605 69 67 0.0 0.0 0.00 0.00 0.00 65 1012.2
20260506004105 69 67 0.0 0.0 0.00 0.00 0.00 65 1012.1
20260506003604 69 67 0.0 0.0 0.00 0.00 0.00 65 1012.2
20260506003105 70 67 0.0 0.0 0.00 0.00 0.00 64 1012.2
20260506002605 70 67 0.0 0.0 0.00 0.00 0.00 63 1012.2
20260506002105 70 67 0.0 0.0 0.00 0.00 0.00 64 1012.3
20260506001604 70 67 0.0 0.0 0.00 0.00 0.00 63 1012.3
20260506001105 70 67 0.0 0.0 0.00 0.00 0.00 63 1012.3
20260506000605 70 70 0.0 0.0 0.00 0.00 0.00 63 1012.3
20260506000105 70 70 0.0 0.0 0.00 0.00 0.00 64 1012.4
20260505235105 70 109 0.0 0.0 0.00 0.00 0.00 65 1012.5
20260505234604 70 109 0.0 0.0 0.00 0.00 0.00 65 1012.4
20260505234105 70 109 0.0 1.0 0.00 0.00 0.00 64 1012.4
20260505233605 70 109 0.0 0.0 0.00 0.00 0.00 65 1012.4
20260505233106 70 109 0.0 0.0 0.00 0.00 0.00 63 1012.5
20260505232605 70 109 0.0 0.0 0.00 0.00 0.00 65 1012.6
20260505232105 70 109 0.0 0.0 0.00 0.00 0.00 63 1012.5
20260505231605 70 109 0.0 0.0 0.00 0.00 0.00 62 1012.6
20260505231105 70 109 0.0 0.0 0.00 0.00 0.00 64 1012.6
20260505230605 71 109 0.0 0.0 0.00 0.00 0.00 62 1012.7
20260505230105 71 109 0.0 0.0 0.00 0.00 0.00 62 1012.7
20260505225605 71 74 0.0 0.0 0.00 0.00 0.00 62 1012.9
20260505225106 71 78 0.0 0.0 0.00 0.00 0.00 62 1012.8
20260505224605 71 31 0.0 0.0 0.00 0.00 0.00 62 1012.9
20260505224105 71 23 0.0 0.0 0.00 0.00 0.00 65 1012.9
20260505223605 70 55 0.0 1.0 0.00 0.00 0.00 65 1012.9
20260505223104 69 59 0.0 0.0 0.00 0.00 0.00 64 1012.9
20260505222604 69 59 0.0 1.0 0.00 0.00 0.00 63 1013.0
20260505222105 70 61 0.0 2.0 0.00 0.00 0.00 65 1013.0
20260505221605 70 61 0.0 1.0 0.00 0.00 0.00 63 1013.0
20260505221105 70 37 0.0 0.0 0.00 0.00 0.00 65 1013.1
20260505220605 70 80 0.0 2.0 0.00 0.00 0.00 62 1013.2
20260505220105 70 80 0.0 0.0 0.00 0.00 0.00 68 1013.2
20260505215605 69 317 0.0 1.0 0.00 0.00 0.00 64 1013.3
20260505215105 69 58 0.0 0.0 0.00 0.00 0.00 65 1013.4
20260505214605 69 56 1.0 5.0 0.00 0.00 0.00 65 1013.4
20260505214105 69 57 0.0 0.0 0.00 0.00 0.00 68 1013.4
20260505213606 69 56 0.0 3.0 0.00 0.00 0.00 66 1013.4
20260505213105 69 346 0.0 6.0 0.00 0.00 0.00 66 1013.4
20260505212605 69 51 0.0 0.0 0.00 0.00 0.00 64 1013.4
20260505211105 68 30 0.0 0.0 0.00 0.00 0.00 65 1013.6
20260505210605 68 30 0.0 0.0 0.00 0.00 0.00 66 1013.6
20260505210105 68 30 0.0 0.0 0.00 0.00 0.00 64 1013.7
20260505205605 68 100 0.0 2.0 0.00 0.00 0.00 65 1013.8
20260505205105 68 347 0.0 1.0 0.00 0.00 0.00 66 1013.8
20260505204605 68 35 0.0 0.0 0.00 0.00 0.00 65 1013.7
20260505204105 67 75 0.0 0.0 0.00 0.00 0.00 64 1013.7
20260505203605 68 9 0.0 3.0 0.00 0.00 0.00 67 1013.7
20260505202605 68 11 0.0 0.0 0.00 0.00 0.00 67 1013.7
20260505202105 68 76 0.0 2.0 0.00 0.00 0.00 66 1013.7
20260505201604 68 88 0.0 2.0 0.00 0.00 0.00 67 1013.7
20260505201105 67 91 0.0 3.0 0.00 0.00 0.00 67 1013.7
20260505200605 67 57 0.0 1.0 0.00 0.00 0.00 66 1013.6
20260505200105 67 80 0.0 0.0 0.00 0.00 0.00 68 1013.7
20260505194604 67 64 1.0 6.0 0.00 0.00 0.00 69 1013.8
20260505194105 67 46 0.0 0.0 0.00 0.00 0.00 65 1013.8
20260505193605 68 45 0.0 0.0 0.00 0.00 0.00 67 1013.8
20260505192605 68 62 0.0 2.0 0.00 0.00 0.00 66 1013.7
20260505192106 68 20 0.0 0.0 0.00 0.00 0.00 67 1013.7
20260505191105 68 71 0.0 1.0 0.00 0.00 0.00 67 1013.7
20260505190605 67 307 1.0 6.0 0.00 0.00 0.00 66 1013.7
20260505190105 68 18 0.0 1.0 0.00 0.00 0.00 69 1013.7
20260505185104 67 94 0.0 1.0 0.00 0.00 0.00 67 1013.6
20260505184605 68 329 0.0 0.0 0.00 0.00 0.00 66 1013.6
20260505184106 68 329 0.0 5.0 0.00 0.00 0.00 66 1013.6
20260505183605 68 42 0.0 0.0 0.00 0.00 0.00 66 1013.6
20260505183105 68 39 0.0 1.0 0.00 0.00 0.00 67 1013.5
20260505181605 68 85 0.0 0.0 0.00 0.00 0.00 65 1013.5
20260505181105 69 80 0.0 0.0 0.00 0.00 0.00 66 1013.4
20260505180105 68 69 0.0 0.0 0.00 0.00 0.00 66 1013.4
20260505175604 67 326 0.0 0.0 0.00 0.00 0.00 68 1013.5
20260505174605 67 49 0.0 0.0 0.00 0.00 0.00 67 1013.5
20260505174104 67 49 0.0 0.0 0.00 0.00 0.00 70 1013.5
20260505173605 66 49 0.0 0.0 0.00 0.00 0.00 72 1013.6
20260505173104 66 49 0.0 1.0 0.00 0.00 0.00 72 1013.5
20260505172605 65 51 0.0 0.0 0.00 0.00 0.00 73 1013.6
20260505172104 64 58 0.0 0.0 0.00 0.00 0.00 73 1013.6
20260505170605 63 349 0.0 5.0 0.00 0.00 0.00 76 1013.6
20260505170105 64 57 0.0 0.0 0.00 0.00 0.00 77 1013.6
20260505165605 63 57 0.0 0.0 0.00 0.00 0.00 76 1013.5
20260505165105 63 55 0.0 1.0 0.00 0.00 0.00 77 1013.5
20260505164605 62 50 0.0 0.0 0.00 0.00 0.00 79 1013.4
20260505164105 62 50 0.0 0.0 0.00 0.00 0.00 80 1013.4
20260505163605 62 50 0.0 0.0 0.00 0.00 0.00 76 1013.4
20260505163105 62 50 0.0 0.0 0.00 0.00 0.00 77 1013.3
20260505162104 62 50 0.0 0.0 0.00 0.00 0.00 75 1013.3
20260505161604 61 50 0.0 0.0 0.00 0.00 0.00 76 1013.2
20260505161104 60 50 0.0 0.0 0.00 0.00 0.00 81 1013.3
20260505160605 60 50 0.0 0.0 0.00 0.00 0.00 81 1013.2
20260505153105 57 321 0.0 0.0 0.00 0.00 0.00 85 1013.1
20260505152605 57 321 0.0 0.0 0.00 0.00 0.00 86 1013.1
20260505152104 57 321 0.0 0.0 0.00 0.00 0.00 86 1013.0
20260505151105 56 321 0.0 0.0 0.00 0.00 0.00 86 1012.9
20260505150105 55 321 0.0 0.0 0.00 0.00 0.00 86 1012.8
20260505140604 54 321 0.0 0.0 0.00 0.00 0.00 82 1012.1
20260505140104 54 321 0.0 0.0 0.00 0.00 0.00 82 1012.1
20260505130104 55 321 0.0 0.0 0.00 0.00 0.00 79 1011.5
20260505124105 56 321 0.0 0.0 0.00 0.00 0.00 78 1011.1
20260505123605 56 321 0.0 0.0 0.00 0.00 0.00 78 1011.1
20260505123105 57 321 0.0 0.0 0.00 0.00 0.00 77 1011.1
20260505122605 57 321 0.0 0.0 0.00 0.00 0.00 76 1011.1
20260505122104 57 321 0.0 0.0 0.00 0.00 0.00 76 1011.0
20260505121105 58 321 0.0 0.0 0.00 0.00 0.00 74 1010.9
20260505120604 59 321 0.0 0.0 0.00 0.00 0.00 74 1010.8
20260505120105 59 321 0.0 0.0 0.00 0.00 0.00 73 1010.7
20260505115606 59 321 0.0 0.0 0.00 0.00 0.00 73 1010.7
20260505115104 59 321 0.0 0.0 0.00 0.00 0.00 71 1010.7
20260505114605 60 322 0.0 0.0 0.00 0.00 0.00 70 1010.7
20260505114105 60 321 0.0 0.0 0.00 0.00 0.00 70 1010.7
20260505113605 59 321 0.0 0.0 0.00 0.00 0.00 70 1010.7
20260505113105 59 321 0.0 0.0 0.00 0.00 0.00 71 1010.7
20260505112105 59 321 0.0 0.0 0.00 0.00 0.00 73 1010.7
20260505111606 59 321 0.0 0.0 0.00 0.00 0.00 72 1010.8
20260505111105 59 321 0.0 0.0 0.00 0.00 0.00 72 1010.7
20260505110604 59 321 0.0 0.0 0.00 0.00 0.00 73 1010.6
20260505110105 59 321 0.0 0.0 0.00 0.00 0.00 73 1010.6
20260505100604 60 321 0.0 0.0 0.00 0.00 0.00 71 1010.0
20260505100105 60 321 0.0 0.0 0.00 0.00 0.00 71 1009.9
20260505095605 60 322 0.0 0.0 0.00 0.00 0.00 69 1009.8
20260505095105 61 322 0.0 0.0 0.00 0.00 0.00 69 1009.7
20260505094105 60 321 0.0 0.0 0.00 0.00 0.00 68 1009.7
20260505093105 60 321 0.0 0.0 0.00 0.00 0.00 71 1009.7
20260505092104 61 321 0.0 0.0 0.00 0.00 0.00 70 1009.6
20260505091604 61 321 0.0 0.0 0.00 0.00 0.00 70 1009.6
20260505091104 61 321 0.0 0.0 0.00 0.00 0.00 69 1009.6
20260505090104 61 321 0.0 0.0 0.00 0.00 0.00 70 1009.5
20260505085604 61 321 0.0 0.0 0.00 0.00 0.00 70 1009.5
20260505084604 61 321 0.0 0.0 0.00 0.00 0.00 70 1009.4
20260505084104 61 321 0.0 0.0 0.00 0.00 0.00 70 1009.3
20260505083604 61 322 0.0 0.0 0.00 0.00 0.00 69 1009.2
20260505083104 61 321 0.0 0.0 0.00 0.00 0.00 70 1009.2
20260505082605 61 321 0.0 0.0 0.00 0.00 0.00 70 1009.1
20260505082105 61 321 0.0 0.0 0.00 0.00 0.00 69 1009.1
20260505081605 62 322 0.0 0.0 0.00 0.00 0.00 68 1009.0
20260505081105 62 321 0.0 0.0 0.00 0.00 0.00 67 1009.0
20260505080105 62 321 0.0 0.0 0.00 0.00 0.00 66 1009.1
20260505075104 62 321 0.0 0.0 0.00 0.00 0.00 67 1009.0
20260505074605 62 321 0.0 0.0 0.00 0.00 0.00 66 1009.0
20260505074104 62 321 0.0 0.0 0.00 0.00 0.00 65 1008.9
20260505073604 62 321 0.0 0.0 0.00 0.00 0.00 66 1008.8
20260505072604 62 321 0.0 0.0 0.00 0.00 0.00 66 1008.8
20260505072104 62 322 0.0 0.0 0.00 0.00 0.00 66 1008.8
20260505071104 62 321 0.0 0.0 0.00 0.00 0.00 67 1008.7
20260505070605 62 322 0.0 0.0 0.00 0.00 0.00 66 1008.5
20260505065105 62 321 0.0 0.0 0.00 0.00 0.00 67 1008.5
20260505064605 63 321 0.0 0.0 0.00 0.00 0.00 65 1008.4
20260505064105 63 321 0.0 0.0 0.00 0.00 0.00 64 1008.4
20260505063604 63 321 0.0 0.0 0.00 0.00 0.00 63 1008.4
20260505063104 63 321 0.0 0.0 0.00 0.00 0.00 64 1008.3
20260505062605 63 321 0.0 0.0 0.00 0.00 0.00 63 1008.3
20260505061604 63 321 0.0 0.0 0.00 0.00 0.00 65 1008.2
20260505061105 63 322 0.0 0.0 0.00 0.00 0.00 65 1008.2
20260505060604 63 321 0.0 0.0 0.00 0.00 0.00 65 1008.2
20260505060104 64 321 0.0 0.0 0.00 0.00 0.00 64 1008.2
20260505055105 64 321 0.0 0.0 0.00 0.00 0.00 65 1008.2
20260505054604 64 321 0.0 0.0 0.00 0.00 0.00 65 1008.2
20260505054104 64 321 0.0 0.0 0.00 0.00 0.00 64 1008.1
20260505053604 64 321 0.0 0.0 0.00 0.00 0.00 65 1008.1
20260505053104 65 321 0.0 0.0 0.00 0.00 0.00 64 1008.1
20260505052604 65 322 0.0 0.0 0.00 0.00 0.00 64 1008.1
20260505052104 65 321 0.0 0.0 0.00 0.00 0.00 62 1008.0
20260505051604 65 321 0.0 0.0 0.00 0.00 0.00 61 1007.9
20260505051104 65 321 0.0 0.0 0.00 0.00 0.00 60 1007.8
20260505050604 65 321 0.0 0.0 0.00 0.00 0.00 62 1007.8
20260505050104 65 321 0.0 0.0 0.00 0.00 0.00 62 1007.8
20260505041604 66 321 0.0 0.0 0.00 0.00 0.00 62 1007.6
20260505041104 66 321 0.0 0.0 0.00 0.00 0.00 60 1007.5
20260505040604 67 321 0.0 0.0 0.00 0.00 0.00 60 1007.4
20260505040105 67 321 0.0 0.0 0.00 0.00 0.00 61 1007.3
20260505035604 67 321 0.0 0.0 0.00 0.00 0.00 61 1007.3
20260505035104 68 321 0.0 0.0 0.00 0.00 0.00 59 1007.4
20260505034605 68 321 0.0 0.0 0.00 0.00 0.00 58 1007.3
20260505033605 69 321 0.0 0.0 0.00 0.00 0.00 56 1007.2
20260505033104 69 322 0.0 0.0 0.00 0.00 0.00 56 1007.2
20260505032604 69 321 0.0 0.0 0.00 0.00 0.00 55 1007.2
20260505032104 69 321 0.0 0.0 0.00 0.00 0.00 55 1007.2
20260505031604 69 321 0.0 0.0 0.00 0.00 0.00 56 1007.2
20260505031104 69 321 0.0 0.0 0.00 0.00 0.00 56 1007.3
20260505030104 70 321 0.0 0.0 0.00 0.00 0.00 55 1007.2
20260505025604 70 321 0.0 0.0 0.00 0.00 0.00 54 1007.1
20260505024604 71 321 0.0 0.0 0.00 0.00 0.00 54 1006.9
20260505024104 71 321 0.0 0.0 0.00 0.00 0.00 53 1006.9
20260505023605 71 322 0.0 0.0 0.00 0.00 0.00 54 1006.9